Regional Weather Roundup
Issued by NWS Sterling, VA

Home | Current Version | Previous Version | Text Only | Print | Product List | Glossary Off
Versions: 1 2 3 4 5 6 7 8 9 10 11 12 13 14 15 16 17 18 19 20 21 22 23 24 25 26 27 28 29 30 31 32 33 34 35 36 37 38 39 40 41 42 43 44 45 46 47 48 49 50

000
ASUS41 KLWX 202211
RWRLWX

REGIONAL WEATHER ROUNDUP
NATIONAL WEATHER SERVICE BALTIMORE MD/WASHINGTON DC
600 PM EDT SUN AUG 20 2017

Note: "FAIR" indicates few or no clouds below 12,000 feet
with no significant weather and/or obstructions to visibility.
 TC=TEMPERATURE CELSIUS

 * =Non NWS site. Station does not report precipitation (e.g. rain,
    snow, etc.), thunder, or fog.

DCZ001-MDZ009-015-VAZ040>042-051-053>054-202300-
WASHINGTON METRO

CITY           SKY/WX    TMP DP  RH WIND       PRES   REMARKS
WASHINGTON NAT SUNNY     86  64  47 N8        30.10F
DULLES         SUNNY     85  63  47 N3        30.11S
ANDREWS AFB    SUNNY     84  60  44 N3        30.10S
FT BELVOIR     SUNNY     87  62  42 CALM      30.10S
QUANTICO       SUNNY     85  68  56 CALM      30.11S
COLLEGE PARK*  SUNNY     84  59  42 N3        30.10S
LEESBURG*      SUNNY     86  66  51 CALM      30.12S
MANASSAS*      SUNNY     85  67  54 S5        30.11S
GAITHERSBURG*  SUNNY     83  62  49 CALM      30.13F

$$

MDZ006>007-011-014-202300-
BALTIMORE METRO

CITY           SKY/WX    TMP DP  RH WIND       PRES   REMARKS
BWI AIRPORT    SUNNY     84  60  44 VRB6      30.10S
MD SCIENCE CTR   N/A     86  60  41 MISG      30.08F
MARTIN STATE   SUNNY     82  68  61 SE6       30.12R
ANNAPOLIS      SUNNY     83  67  58 SE7       30.10S
FORT MEADE*    SUNNY     79  61  53 CALM      30.13S

$$

MDZ012-015-019>023-202300-
MARYLAND EASTERN SHORE

CITY           SKY/WX    TMP DP  RH WIND       PRES   REMARKS
OCEAN CITY     SUNNY     78  69  73 SE3       30.12R
SALISBURY      SUNNY     85  62  46 NW7       30.11R
BAY BRIDGE AP* SUNNY     84  66  54 SE6       30.11S
CAMBRIDGE*     SUNNY     82  63  51 CALM      30.11S

$$

MDZ017>025-202300-
SOUTHERN MARYLAND

CITY           SKY/WX    TMP DP  RH WIND       PRES   REMARKS
PATUXENT RIVER MOSUNNY   81  69  67 E5        30.11R
ST INIGOES     SUNNY     83  70  64 NE5       30.11R
LEONARDTOWN*   SUNNY     81  68  65 CALM      30.13S

$$

MDZ003>005-202300-
NORTH CENTRAL MARYLAND

CITY           SKY/WX    TMP DP  RH WIND       PRES   REMARKS
FREDERICK*     SUNNY     88  55  33 CALM      30.14S
HAGERSTOWN APT SUNNY     83  57  41 CALM      30.13S
WESTMINSTER*   SUNNY     84  63  48 W5        30.14S

$$

MDZ501>502-202300-
WESTERN MARYLAND

CITY           SKY/WX    TMP DP  RH WIND       PRES   REMARKS
OAKLAND*       SUNNY     75  59  57 NW3       30.20S
CUMBERLAND*    SUNNY     86  63  45 SE3       30.15S

$$

VAZ025>031-202300-
SHENANDOAH VALLEY

CITY           SKY/WX    TMP DP  RH WIND       PRES   REMARKS
WINCHESTER*    SUNNY     81  63  54 SE6       30.12S
FRONT ROYAL*   SUNNY     82  70  65 E5        30.11S
LURAY*         PTSUNNY   84  68  58 E6        30.11S
NEW MARKET*    SUNNY     85  67  54 CALM      30.10S
STAUNTON*      MOSUNNY   83  68  60 SE3       30.15R
WAYNESBORO*    CLOUDY    83  68  59 SE5       30.15R

$$

WVZ021-048>050-054>055-202300-
EASTERN WEST VIRGINIA PANHANDLE

CITY           SKY/WX    TMP DP  RH WIND       PRES   REMARKS
MARTINSBURG    SUNNY     83  61  47 S5        30.11S
PETERSBURG*    SUNNY     88  69  53 E3        30.11S HX  92

$$

VAZ036>039-050-202300-
CENTRAL FOOTHILLS

CITY           SKY/WX    TMP DP  RH WIND       PRES   REMARKS
CHARLOTTESVILL MOSUNNY   87  67  51 E6        30.10S HX  90
CULPEPER*      SUNNY     87  69  54 E3        30.11S HX  91
ORANGE*        SUNNY     86  66  51 CALM      30.11S
GORDONSVILLE*  SUNNY     86  70  59 NE3       30.10S HX  90
WARRENTON*     SUNNY     86  63  45 CALM      30.11S

$$

VAZ055>057-202300-
NORTH AND CENTRAL PIEDMONT

CITY           SKY/WX    TMP DP  RH WIND       PRES   REMARKS
FREDERICKSBRG* SUNNY     86  69  56 E5        30.10S HX  90
STAFFORD*      SUNNY     84  69  60 E7        30.15S

$$

NCZ024-NYZ072-PAZ021-071-VAZ022-071-202300-
OTHER REGIONAL OBSERVATIONS

CITY           SKY/WX    TMP DP  RH WIND       PRES   REMARKS
NEW YORK CITY  SUNNY     81  58  45 VRB3      30.10R
PHILADELPHIA   MOSUNNY   85  58  39 NW10      30.09S
PITTSBURGH     MOSUNNY   82  59  45 S6        30.12F
ROANOKE        MOSUNNY   87  62  43 SE10      30.14R
RICHMOND       MOSUNNY   86  70  58 E6        30.10R HX  90
RALEIGH        MOSUNNY   92  65  40 E8        30.09R HX  94

$$

ANZ530>537-202300-
MARINE OBSERVATIONS

STATION/POSITION TIME  TEMP    WIND        PRES
                       AIR SEA DIR/SP/G
                 (UTC) (F)     (DEG/KT/KT) (MB)
THOMAS PT LIGHT  2200   81 82  140/  3/  4   N/A
BALT KEY BRIDGE  2148   81     120/  7/  8 1019.3R
COVE POINT       2148   80      50/  4/  4 1020.3R
LEWISETTA        2148   81 83  110/  6/  7 1019.6R
SOLOMONS ISLAND  2148           90/  3/  5   N/A
PINEY POINT      2148          170/  3/  3   N/A

$$




USA.gov is the U.S. government's official web portal to all federal, state and local government web resources and services.